Tracking 18843 objects as of 20-November-2017
HD Live streaming from Space Station
objects crossing your sky now

EKRAN 11

Track EKRAN 11 now!
EKRAN 11 is classified as:


NORAD ID: 14377
Int'l Code: 1983-100A
Perigee: 35,776.6 km
Apogee: 35,829.3 km
Inclination: 13.6 °
Period: 1,436.6 minutes
Semi major axis: 42173 km
RCS: 1.2589 m2 (large)
Launch date: September 29, 1983
Source: Commonwealth of Independent States (former USSR) (CIS)
Launch site: TYURATAM MISSILE AND SPACE COMPLEX (TTMTR)
aabbcc
Your satellite tracking list
Your tracking list is empty




NASA's NSSDC Master Catalog

Two Line Element Set (TLE):
1 14377U 83100A   17323.47896521 -.00000295 +00000-0 +00000-0 0  9999
2 14377 013.6249 334.2233 0006249 272.7947 081.3687 01.00238819015964
Source of the keplerian elements: AFSPC